Time,TemperatureF,DewpointF,PressureIn,WindDirection,WindDirectionDegrees,WindSpeedMPH,WindSpeedGustMPH,Humidity,HourlyPrecipIn,Conditions,Clouds,dailyrainin,SoftwareType,DateUTC
2013-05-28 00:02:00,66.0,65.0,30.09,SE,125,0.0,-999.0,98,-99.99,,,-99.99,,2013-05-28 10:02:00,
2013-05-28 00:12:00,66.0,65.0,30.09,SE,125,0.0,-999.0,98,-99.99,,,-99.99,,2013-05-28 10:12:00,
2013-05-28 00:22:00,66.0,65.0,30.09,SE,125,0.0,-999.0,98,-99.99,,,-99.99,,2013-05-28 10:22:00,
2013-05-28 00:32:00,66.0,65.0,30.09,SE,125,0.0,-999.0,98,-99.99,,,-99.99,,2013-05-28 10:32:00,
2013-05-28 00:42:00,66.0,65.0,30.09,SE,125,0.0,-999.0,98,-99.99,,,-99.99,,2013-05-28 10:42:00,
2013-05-28 00:53:00,66.0,65.0,30.08,SE,125,0.0,-999.0,98,-99.99,,,-99.99,,2013-05-28 10:53:00,
2013-05-28 01:02:00,66.0,65.0,30.08,SE,125,0.0,-999.0,98,-99.99,,,-99.99,,2013-05-28 11:02:00,
2013-05-28 01:11:00,66.0,65.0,30.08,SE,125,0.0,-999.0,98,-99.99,,,-99.99,,2013-05-28 11:11:00,
2013-05-28 01:22:00,66.0,65.0,30.07,SE,125,0.0,-999.0,98,-99.99,,,-99.99,,2013-05-28 11:22:00,
2013-05-28 01:31:00,66.0,65.0,30.06,SE,125,0.0,-999.0,98,-99.99,,,-99.99,,2013-05-28 11:31:00,
2013-05-28 01:41:00,66.0,65.0,30.06,SE,125,0.0,-999.0,98,-99.99,,,-99.99,,2013-05-28 11:41:00,
2013-05-28 01:52:00,66.0,65.0,30.06,SE,125,0.0,-999.0,98,-99.99,,,-99.99,,2013-05-28 11:52:00,
2013-05-28 02:01:00,66.0,65.0,30.05,SE,125,0.0,-999.0,98,-99.99,,,-99.99,,2013-05-28 12:01:00,
2013-05-28 02:11:00,66.0,65.0,30.05,SE,125,0.0,-999.0,98,-99.99,,,-99.99,,2013-05-28 12:11:00,
2013-05-28 02:21:00,66.0,65.0,30.05,SE,125,0.0,-999.0,98,-99.99,,,-99.99,,2013-05-28 12:21:00,
2013-05-28 02:31:00,66.0,65.0,30.05,SE,125,0.0,-999.0,98,-99.99,,,-99.99,,2013-05-28 12:31:00,
2013-05-28 02:42:00,66.0,65.0,30.05,SE,125,0.0,-999.0,98,-99.99,,,-99.99,,2013-05-28 12:42:00,
2013-05-28 02:52:00,66.0,65.0,30.04,SE,125,0.0,-999.0,98,-99.99,,,-99.99,,2013-05-28 12:52:00,
2013-05-28 03:01:00,66.0,65.0,30.04,SE,125,0.0,-999.0,98,-99.99,,,-99.99,,2013-05-28 13:01:00,
2013-05-28 03:11:00,66.0,65.0,30.04,SE,125,0.0,-999.0,98,-99.99,,,-99.99,,2013-05-28 13:11:00,
2013-05-28 03:21:00,66.0,65.0,30.03,SE,125,0.0,-999.0,98,-99.99,,,-99.99,,2013-05-28 13:21:00,
2013-05-28 03:32:00,65.0,64.0,30.03,SE,125,0.0,-999.0,98,-99.99,,,-99.99,,2013-05-28 13:32:00,
2013-05-28 03:42:00,65.0,64.0,30.03,SE,125,0.0,-999.0,98,-99.99,,,-99.99,,2013-05-28 13:42:00,
2013-05-28 03:52:00,65.0,64.0,30.03,SE,125,0.0,-999.0,98,-99.99,,,-99.99,,2013-05-28 13:52:00,
2013-05-28 04:01:00,65.0,64.0,30.02,SE,125,0.0,-999.0,98,-99.99,,,-99.99,,2013-05-28 14:01:00,
2013-05-28 04:11:00,65.0,64.0,30.02,SE,125,0.0,-999.0,98,-99.99,,,-99.99,,2013-05-28 14:11:00,
2013-05-28 04:21:00,65.0,64.0,30.03,SE,125,0.0,-999.0,98,-99.99,,,-99.99,,2013-05-28 14:21:00,
2013-05-28 04:32:00,65.0,64.0,30.02,SE,125,0.0,-999.0,98,-99.99,,,-99.99,,2013-05-28 14:32:00,
2013-05-28 04:41:00,65.0,64.0,30.02,SE,125,0.0,-999.0,98,-99.99,,,-99.99,,2013-05-28 14:41:00,
2013-05-28 04:52:00,64.0,63.0,30.03,SE,125,0.0,-999.0,98,-99.99,,,-99.99,,2013-05-28 14:52:00,
2013-05-28 05:01:00,64.0,63.0,30.03,SE,125,0.0,-999.0,98,-99.99,,,-99.99,,2013-05-28 15:01:00,
2013-05-28 05:11:00,64.0,63.0,30.03,SE,125,0.0,-999.0,98,-99.99,,,-99.99,,2013-05-28 15:11:00,
2013-05-28 05:21:00,64.0,63.0,30.03,SE,125,0.0,-999.0,98,-99.99,,,-99.99,,2013-05-28 15:21:00,
2013-05-28 05:32:00,64.0,63.0,30.03,SE,125,0.0,-999.0,98,-99.99,,,-99.99,,2013-05-28 15:32:00,
2013-05-28 05:43:00,64.0,63.0,30.03,SE,125,0.0,-999.0,98,-99.99,,,-99.99,,2013-05-28 15:43:00,
2013-05-28 05:53:00,63.0,62.0,30.03,SE,125,0.0,-999.0,98,-99.99,,,-99.99,,2013-05-28 15:53:00,
2013-05-28 06:02:00,63.0,62.0,30.03,SE,125,0.0,-999.0,98,-99.99,,,-99.99,,2013-05-28 16:02:00,
2013-05-28 06:12:00,63.0,62.0,30.03,SE,125,0.0,-999.0,98,-99.99,,,-99.99,,2013-05-28 16:12:00,
2013-05-28 06:22:00,63.0,62.0,30.04,SE,125,0.0,-999.0,98,-99.99,,,-99.99,,2013-05-28 16:22:00,
2013-05-28 06:32:00,63.0,62.0,30.04,SE,125,0.0,-999.0,98,-99.99,,,-99.99,,2013-05-28 16:32:00,
2013-05-28 06:42:00,63.0,62.0,30.04,SE,125,0.0,-999.0,98,-99.99,,,-99.99,,2013-05-28 16:42:00,
2013-05-28 06:52:00,63.0,63.0,30.04,SE,125,0.0,-999.0,99,-99.99,,,-99.99,,2013-05-28 16:52:00,
2013-05-28 07:02:00,64.0,64.0,30.05,SE,125,0.0,-999.0,99,-99.99,,,-99.99,,2013-05-28 17:02:00,
2013-05-28 07:11:00,64.0,64.0,30.05,SE,125,0.0,-999.0,99,-99.99,,,-99.99,,2013-05-28 17:11:00,
2013-05-28 07:22:00,64.0,64.0,30.05,SE,125,0.0,-999.0,99,-99.99,,,-99.99,,2013-05-28 17:22:00,
2013-05-28 07:32:00,67.0,67.0,30.06,SE,125,0.0,-999.0,99,-99.99,,,-99.99,,2013-05-28 17:32:00,
2013-05-28 07:41:00,70.0,70.0,30.06,SE,125,0.0,-999.0,99,-99.99,,,-99.99,,2013-05-28 17:41:00,
2013-05-28 07:52:00,70.0,70.0,30.06,SE,125,0.0,-999.0,99,-99.99,,,-99.99,,2013-05-28 17:52:00,
2013-05-28 08:01:00,71.0,70.0,30.06,SE,125,0.0,-999.0,97,-99.99,,,-99.99,,2013-05-28 18:01:00,
2013-05-28 08:11:00,71.0,70.0,30.06,SE,125,0.0,-999.0,97,-99.99,,,-99.99,,2013-05-28 18:11:00,
2013-05-28 08:21:00,74.0,71.0,30.06,NNE,30,0.0,-999.0,90,-99.99,,,-99.99,,2013-05-28 18:21:00,
2013-05-28 08:32:00,74.0,71.0,30.06,NNE,30,0.0,-999.0,90,-99.99,,,-99.99,,2013-05-28 18:32:00,
2013-05-28 08:42:00,77.0,71.0,30.06,NE,35,0.0,-999.0,83,-99.99,,,-99.99,,2013-05-28 18:42:00,
2013-05-28 08:52:00,77.0,71.0,30.06,NE,35,0.0,-999.0,83,-99.99,,,-99.99,,2013-05-28 18:52:00,
2013-05-28 09:01:00,78.0,71.0,30.06,ENE,71,0.0,-999.0,80,-99.99,,,-99.99,,2013-05-28 19:01:00,
2013-05-28 09:11:00,78.0,71.0,30.06,ENE,71,0.0,-999.0,80,-99.99,,,-99.99,,2013-05-28 19:11:00,
2013-05-28 09:21:00,78.0,72.0,30.06,NNE,28,0.0,-999.0,81,-99.99,,,-99.99,,2013-05-28 19:21:00,
2013-05-28 09:31:00,78.0,72.0,30.06,NE,38,1.0,-999.0,81,-99.99,,,-99.99,,2013-05-28 19:31:00,
2013-05-28 09:41:00,78.0,72.0,30.06,NE,38,1.0,-999.0,81,-99.99,,,-99.99,,2013-05-28 19:41:00,
2013-05-28 09:52:00,78.0,72.0,30.06,NE,36,1.0,-999.0,82,-99.99,,,-99.99,,2013-05-28 19:52:00,
2013-05-28 10:01:00,77.0,70.0,30.06,South,185,1.0,-999.0,79,-99.99,,,-99.99,,2013-05-28 20:01:00,
2013-05-28 10:11:00,77.0,70.0,30.06,South,185,1.0,-999.0,79,-99.99,,,-99.99,,2013-05-28 20:11:00,
2013-05-28 10:22:00,76.0,71.0,30.06,NE,37,0.0,-999.0,85,-99.99,,,-99.99,,2013-05-28 20:22:00,
2013-05-28 10:32:00,76.0,72.0,30.06,NE,37,0.0,-999.0,87,-99.99,,,-99.99,,2013-05-28 20:32:00,
2013-05-28 10:42:00,76.0,72.0,30.06,NE,37,0.0,-999.0,87,-99.99,,,-99.99,,2013-05-28 20:42:00,
2013-05-28 10:52:00,75.0,71.0,30.05,NE,37,0.0,-999.0,88,-99.99,,,-99.99,,2013-05-28 20:52:00,
2013-05-28 11:01:00,75.0,72.0,30.06,NE,37,0.0,-999.0,90,-99.99,,,-99.99,,2013-05-28 21:01:00,
2013-05-28 11:11:00,74.0,72.0,30.06,NE,37,0.0,-999.0,92,-99.99,,,-99.99,,2013-05-28 21:11:00,
2013-05-28 11:21:00,74.0,72.0,30.06,NE,37,0.0,-999.0,92,-99.99,,,-99.99,,2013-05-28 21:21:00,
2013-05-28 11:33:00,74.0,72.0,30.06,NE,37,0.0,-999.0,94,-99.99,,,-99.99,,2013-05-28 21:33:00,
2013-05-28 11:43:00,76.0,74.0,30.05,NE,37,0.0,-999.0,94,-99.99,,,-99.99,,2013-05-28 21:43:00,
2013-05-28 11:53:00,76.0,74.0,30.05,NE,37,0.0,-999.0,94,-99.99,,,-99.99,,2013-05-28 21:53:00,
2013-05-28 12:02:00,77.0,74.0,30.05,NE,37,0.0,-999.0,92,-99.99,,,-99.99,,2013-05-28 22:02:00,
2013-05-28 12:12:00,77.0,74.0,30.05,NE,37,0.0,-999.0,91,-99.99,,,-99.99,,2013-05-28 22:12:00,
2013-05-28 12:22:00,77.0,74.0,30.05,NE,37,0.0,-999.0,91,-99.99,,,-99.99,,2013-05-28 22:22:00,
2013-05-28 12:32:00,79.0,72.0,30.05,South,190,1.0,-999.0,79,-99.99,,,-99.99,,2013-05-28 22:32:00,
2013-05-28 12:42:00,81.0,73.0,30.05,SE,131,0.0,-999.0,78,-99.99,,,-99.99,,2013-05-28 22:42:00,
2013-05-28 12:52:00,81.0,73.0,30.05,SE,131,0.0,-999.0,78,-99.99,,,-99.99,,2013-05-28 22:52:00,
2013-05-28 13:02:00,78.0,73.0,30.04,NE,35,1.0,-999.0,84,-99.99,,,-99.99,,2013-05-28 23:02:00,
2013-05-28 13:11:00,77.0,71.0,30.03,NNE,26,2.0,-999.0,83,-99.99,,,-99.99,,2013-05-28 23:11:00,
2013-05-28 13:21:00,77.0,71.0,30.03,NNE,26,2.0,-999.0,83,-99.99,,,-99.99,,2013-05-28 23:21:00,
2013-05-28 13:32:00,77.0,72.0,30.03,NE,34,1.0,-999.0,84,-99.99,,,-99.99,,2013-05-28 23:32:00,
2013-05-28 13:41:00,77.0,72.0,30.03,NE,34,1.0,-999.0,84,-99.99,,,-99.99,,2013-05-28 23:41:00,
2013-05-28 13:52:00,77.0,72.0,30.03,North,5,1.0,-999.0,86,-99.99,,,-99.99,,2013-05-28 23:52:00,
2013-05-28 14:01:00,77.0,72.0,30.02,ENE,76,1.0,-999.0,85,-99.99,,,-99.99,,2013-05-29 00:01:00,
2013-05-28 14:11:00,77.0,72.0,30.02,ENE,76,1.0,-999.0,85,-99.99,,,-99.99,,2013-05-29 00:11:00,
2013-05-28 14:21:00,78.0,72.0,30.02,North,5,2.0,-999.0,83,-99.99,,,-99.99,,2013-05-29 00:21:00,
2013-05-28 14:32:00,78.0,72.0,30.01,NNW,348,2.0,-999.0,81,-99.99,,,-99.99,,2013-05-29 00:32:00,
2013-05-28 14:41:00,78.0,72.0,30.01,NNW,348,2.0,-999.0,81,-99.99,,,-99.99,,2013-05-29 00:41:00,
2013-05-28 14:52:00,78.0,72.0,30.02,WSW,245,2.0,-999.0,82,-99.99,,,-99.99,,2013-05-29 00:52:00,
2013-05-28 15:01:00,78.0,72.0,30.01,East,87,1.0,-999.0,83,-99.99,,,-99.99,,2013-05-29 01:01:00,
2013-05-28 15:11:00,78.0,72.0,30.01,East,87,1.0,-999.0,83,-99.99,,,-99.99,,2013-05-29 01:11:00,
2013-05-28 15:21:00,79.0,72.0,30.01,NE,42,1.0,-999.0,80,-99.99,,,-99.99,,2013-05-29 01:21:00,
2013-05-28 15:32:00,78.0,71.0,30.01,ESE,103,1.0,-999.0,80,-99.99,,,-99.99,,2013-05-29 01:32:00,
2013-05-28 15:41:00,78.0,71.0,30.01,ESE,103,1.0,-999.0,80,-99.99,,,-99.99,,2013-05-29 01:41:00,
2013-05-28 15:52:00,77.0,72.0,30.01,NNE,32,1.0,-999.0,84,-99.99,,,-99.99,,2013-05-29 01:52:00,
2013-05-28 16:02:00,77.0,71.0,30.01,NE,49,2.0,-999.0,83,-99.99,,,-99.99,,2013-05-29 02:02:00,
2013-05-28 16:11:00,77.0,71.0,30.01,NE,49,2.0,-999.0,83,-99.99,,,-99.99,,2013-05-29 02:11:00,
2013-05-28 16:21:00,76.0,71.0,30.01,NNE,17,0.0,-999.0,84,-99.99,,,-99.99,,2013-05-29 02:21:00,
2013-05-28 16:31:00,76.0,71.0,30.01,SE,129,1.0,-999.0,85,-99.99,,,-99.99,,2013-05-29 02:31:00,
2013-05-28 16:41:00,77.0,72.0,30.01,SSW,194,1.0,-999.0,84,-99.99,,,-99.99,,2013-05-29 02:41:00,
2013-05-28 16:52:00,77.0,72.0,30.01,SSW,194,1.0,-999.0,84,-99.99,,,-99.99,,2013-05-29 02:52:00,
2013-05-28 17:01:00,75.0,70.0,30.01,East,81,1.0,-999.0,85,-99.99,,,-99.99,,2013-05-29 03:01:00,
2013-05-28 17:11:00,75.0,70.0,30.01,East,81,1.0,-999.0,85,-99.99,,,-99.99,,2013-05-29 03:11:00,
2013-05-28 17:21:00,75.0,71.0,30.02,East,101,0.0,-999.0,86,-99.99,,,-99.99,,2013-05-29 03:21:00,
2013-05-28 17:32:00,74.0,70.0,30.02,ESE,109,1.0,-999.0,87,-99.99,,,-99.99,,2013-05-29 03:32:00,
2013-05-28 17:43:00,74.0,70.0,30.02,ESE,109,1.0,-999.0,87,-99.99,,,-99.99,,2013-05-29 03:43:00,
2013-05-28 17:53:00,74.0,71.0,30.03,North,5,0.0,-999.0,90,-99.99,,,-99.99,,2013-05-29 03:53:00,
2013-05-28 18:02:00,73.0,71.0,30.03,ENE,72,0.0,-999.0,92,-99.99,,,-99.99,,2013-05-29 04:02:00,
2013-05-28 18:12:00,72.0,70.0,30.03,ENE,72,0.0,-999.0,93,-99.99,,,-99.99,,2013-05-29 04:12:00,
2013-05-28 18:23:00,72.0,70.0,30.03,ENE,72,0.0,-999.0,93,-99.99,,,-99.99,,2013-05-29 04:23:00,
2013-05-28 18:33:00,72.0,70.0,30.04,ENE,69,0.0,-999.0,94,-99.99,,,-99.99,,2013-05-29 04:33:00,
2013-05-28 18:42:00,72.0,70.0,30.04,ENE,69,0.0,-999.0,94,-99.99,,,-99.99,,2013-05-29 04:42:00,
2013-05-28 18:52:00,72.0,70.0,30.04,ENE,69,0.0,-999.0,95,-99.99,,,-99.99,,2013-05-29 04:52:00,
2013-05-28 19:02:00,72.0,70.0,30.04,ENE,67,0.0,-999.0,95,-99.99,,,-99.99,,2013-05-29 05:02:00,
2013-05-28 19:12:00,72.0,70.0,30.04,ENE,67,0.0,-999.0,95,-99.99,,,-99.99,,2013-05-29 05:12:00,
2013-05-28 19:22:00,71.0,69.0,30.05,SSW,195,0.0,-999.0,95,-99.99,,,-99.99,,2013-05-29 05:22:00,
2013-05-28 19:32:00,71.0,70.0,30.06,SSW,195,0.0,-999.0,96,-99.99,,,-99.99,,2013-05-29 05:32:00,
2013-05-28 19:42:00,71.0,70.0,30.06,SSW,195,0.0,-999.0,96,-99.99,,,-99.99,,2013-05-29 05:42:00,
2013-05-28 19:52:00,71.0,70.0,30.07,SSW,195,0.0,-999.0,96,-99.99,,,-99.99,,2013-05-29 05:52:00,
2013-05-28 20:01:00,71.0,70.0,30.07,SSW,195,0.0,-999.0,96,-99.99,,,-99.99,,2013-05-29 06:01:00,
2013-05-28 20:11:00,71.0,70.0,30.07,SSW,195,0.0,-999.0,96,-99.99,,,-99.99,,2013-05-29 06:11:00,
2013-05-28 20:21:00,71.0,70.0,30.08,SSW,195,0.0,-999.0,96,-99.99,,,-99.99,,2013-05-29 06:21:00,
2013-05-28 20:31:00,71.0,70.0,30.08,SSW,195,0.0,-999.0,97,-99.99,,,-99.99,,2013-05-29 06:31:00,
2013-05-28 20:41:00,71.0,70.0,30.08,SSW,195,0.0,-999.0,97,-99.99,,,-99.99,,2013-05-29 06:41:00,
2013-05-28 20:52:00,71.0,70.0,30.09,SSW,195,0.0,-999.0,97,-99.99,,,-99.99,,2013-05-29 06:52:00,
2013-05-28 21:01:00,71.0,70.0,30.09,SSW,195,0.0,-999.0,97,-99.99,,,-99.99,,2013-05-29 07:01:00,
2013-05-28 21:11:00,71.0,70.0,30.09,SSW,195,0.0,-999.0,97,-99.99,,,-99.99,,2013-05-29 07:11:00,
2013-05-28 21:21:00,71.0,70.0,30.09,SSW,195,0.0,-999.0,97,-99.99,,,-99.99,,2013-05-29 07:21:00,
2013-05-28 21:33:00,70.0,69.0,30.09,SSW,195,0.0,-999.0,97,-99.99,,,-99.99,,2013-05-29 07:33:00,
2013-05-28 21:42:00,70.0,69.0,30.09,SSW,195,0.0,-999.0,97,-99.99,,,-99.99,,2013-05-29 07:42:00,
2013-05-28 21:52:00,70.0,69.0,30.09,SSW,195,0.0,-999.0,97,-99.99,,,-99.99,,2013-05-29 07:52:00,
2013-05-28 22:02:00,70.0,69.0,30.09,SSW,195,0.0,-999.0,97,-99.99,,,-99.99,,2013-05-29 08:02:00,
2013-05-28 22:11:00,70.0,69.0,30.09,SSW,195,0.0,-999.0,97,-99.99,,,-99.99,,2013-05-29 08:11:00,
2013-05-28 22:21:00,70.0,69.0,30.10,SSW,195,0.0,-999.0,98,-99.99,,,-99.99,,2013-05-29 08:21:00,
2013-05-28 22:31:00,70.0,69.0,30.10,SSW,195,0.0,-999.0,98,-99.99,,,-99.99,,2013-05-29 08:31:00,
2013-05-28 22:41:00,70.0,69.0,30.10,SSW,195,0.0,-999.0,98,-99.99,,,-99.99,,2013-05-29 08:41:00,
2013-05-28 22:52:00,70.0,69.0,30.10,SSW,195,0.0,-999.0,98,-99.99,,,-99.99,,2013-05-29 08:52:00,
2013-05-28 23:01:00,70.0,69.0,30.10,SSW,195,0.0,-999.0,98,-99.99,,,-99.99,,2013-05-29 09:01:00,
2013-05-28 23:11:00,70.0,69.0,30.10,SSW,195,0.0,-999.0,98,-99.99,,,-99.99,,2013-05-29 09:11:00,
2013-05-28 23:21:00,70.0,69.0,30.10,SSW,195,0.0,-999.0,98,-99.99,,,-99.99,,2013-05-29 09:21:00,
2013-05-28 23:32:00,70.0,69.0,30.10,SSW,195,0.0,-999.0,98,-99.99,,,-99.99,,2013-05-29 09:32:00,
2013-05-28 23:42:00,70.0,69.0,30.10,SSW,195,0.0,-999.0,98,-99.99,,,-99.99,,2013-05-29 09:42:00,
2013-05-28 23:52:00,70.0,69.0,30.09,SSW,195,0.0,-999.0,98,-99.99,,,-99.99,,2013-05-29 09:52:00,